GFSMW_850_temp_279.txt.gz
Temp
5 7 9 10 9 10 12 13 13 12 12 13 13 14 14 14 15 16 16 17 16 16 17 17 18 17 17 17 17 17 16 16 16 15 15 15 15 15 15 15 15 15 15
7 7 8 9 9 8 9 10 11 12 12 12 12 13 14 14 14 15 16 16 16 16 16 17 17 17 17 17 17 17 17 16 16 15 14 14 14 15 15 15 15 15 15
5 6 7 7 8 8 8 8 8 10 11 12 13 13 13 14 14 14 14 16 16 16 16 16 16 16 17 17 17 17 16 17 17 16 15 15 16 15 15 16 15 15 16
5 4 4 6 7 6 7 7 7 8 9 10 12 12 13 13 14 14 14 14 15 16 16 15 16 16 16 16 17 16 16 16 16 16 16 15 15 15 15 16 16 16 16
4 4 4 4 5 6 6 6 6 7 7 8 9 10 11 11 12 13 13 14 13 13 14 15 15 16 16 16 16 17 17 16 15 16 15 16 15 15 15 15 16 16 17
5 4 4 4 4 5 6 6 6 6 6 7 8 9 10 11 12 12 13 12 13 13 13 13 14 15 15 16 16 17 16 16 16 15 16 14 16 14 14 14 14 16 17
4 4 3 3 4 4 4 5 5 5 5 6 7 7 8 9 10 11 12 12 12 13 14 13 14 15 14 15 15 15 16 16 16 16 15 15 15 14 14 14 15 14 15
4 4 4 4 4 4 4 4 4 5 5 5 6 6 7 8 9 10 10 11 12 12 12 13 13 15 15 15 13 14 15 15 16 16 16 15 16 15 15 14 14 14 14
4 4 4 4 4 4 4 4 4 5 5 4 5 5 6 7 7 8 9 11 11 11 12 12 13 14 13 15 14 13 14 14 15 15 16 16 16 16 16 15 14 14 14
4 4 4 4 4 4 4 4 4 4 4 5 4 4 5 5 6 7 7 8 10 10 11 11 12 13 13 15 13 14 15 13 14 15 15 15 16 16 15 16 16 14 14
3 3 3 4 4 4 4 3 3 3 4 4 4 4 5 5 5 6 6 7 8 9 10 10 11 12 12 13 13 13 14 12 14 14 14 15 16 15 15 16 15 15 13
3 3 3 4 4 4 4 3 3 3 3 3 4 4 4 5 5 5 5 6 6 7 8 10 10 11 12 12 12 13 13 13 13 15 15 14 15 15 15 14 15 15 15
3 3 4 4 4 4 3 3 3 3 3 3 3 4 4 4 4 4 5 5 5 6 6 7 9 9 10 12 12 12 13 13 14 14 13 13 12 12 13 14 14 14 14
4 3 4 3 4 4 3 3 2 2 2 2 2 3 3 3 3 3 4 4 4 4 5 6 6 6 7 8 10 12 11 12 12 13 13 12 12 12 12 12 13 12 12
4 4 4 3 3 3 3 2 2 2 2 2 2 3 3 2 2 3 3 3 4 4 4 5 5 6 6 7 8 9 10 11 11 12 12 12 13 12 12 12 12 12 12
4 4 4 4 3 3 2 2 2 2 1 2 2 3 3 3 2 2 3 3 3 4 3 3 4 5 6 5 7 8 9 10 10 10 11 12 12 11 11 12 12 11 11
4 4 4 4 3 3 2 2 2 1 1 1 1 2 3 3 2 2 2 3 3 3 3 3 2 3 5 5 6 7 8 8 9 9 10 10 11 12 11 12 13 12 12
4 4 4 3 3 3 2 2 1 1 1 1 1 1 2 2 2 2 2 2 2 2 2 2 3 3 3 3 5 6 6 7 7 8 9 10 10 11 12 12 13 13 13
3 3 3 3 2 2 2 1 1 0 1 0 1 1 1 1 2 2 1 2 2 2 2 2 1 2 2 2 2 3 4 5 6 7 8 8 9 10 11 11 12 13 13
3 3 2 2 2 1 1 1 0 -0 -0 0 0 0 0 1 1 2 2 1 2 1 2 2 1 1 1 1 1 1 2 3 4 5 6 8 8 9 10 10 11 12 12
3 2 2 1 1 1 1 0 -0 -0 -0 -0 0 0 0 1 1 2 2 1 2 2 2 2 2 1 1 1 1 1 1 1 2 3 4 5 6 7 8 9 11 12 14
3 2 2 1 1 0 -0 -0 -0 -0 0 0 0 0 0 0 0 1 1 1 1 1 1 2 2 1 2 2 2 1 1 0 1 2 3 3 4 6 7 8 9 10 10
2 2 1 1 0 -0 -0 -1 -1 -0 0 -0 -0 -1 -1 -1 -1 -2 -2 -2 -2 -2 -1 -1 -0 0 1 1 1 2 1 1 1 2 2 2 3 3 5 7 8 9 9
2 2 1 1 0 -0 -1 -1 -1 -1 -1 -1 -1 -1 -2 -4 -5 -6 -5 -5 -6 -5 -6 -5 -5 -2 -0 -1 -2 -0 1 1 2 2 2 2 2 2 3 4 5 7 8
2 1 1 0 -0 -1 -1 -1 -1 -1 -1 -1 -2 -2 -3 -4 -6 -7 -7 -7 -6 -6 -7 -6 -6 -6 -5 -3 -5 -5 -3 -2 -1 0 1 2 1 2 3 3 3 4 5
1 1 0 -0 -0 -1 -1 -2 -2 -2 -2 -3 -3 -4 -4 -6 -7 -7 -7 -7 -7 -7 -6 -6 -7 -6 -6 -6 -6 -5 -3 -2 -3 -1 -1 -1 0 1 1 1 2 3 3

GFSMW_850_temp_285.txt.gz
Temp
12 11 10 10 9 8 8 8 9 8 8 9 9 10 10 13 14 14 14 13 14 14 14 14 14 14 15 16 16 16 15 16 15 16 17 17 17 16 16 16 16 16 15
11 11 10 10 9 8 8 8 8 8 8 8 8 9 9 10 12 13 13 14 14 14 14 14 14 14 14 15 15 15 15 15 15 16 16 17 17 17 16 16 16 16 16
11 11 10 10 9 8 8 8 7 7 7 6 8 8 9 10 10 11 12 12 13 13 14 14 14 14 14 14 15 15 15 15 15 15 16 17 18 19 19 17 16 16 15
10 10 10 10 10 8 8 7 7 7 7 6 6 6 7 8 8 8 11 11 12 12 12 13 14 14 14 13 14 14 14 14 15 16 15 16 17 17 19 19 17 16 16
10 10 10 10 9 8 8 7 7 7 6 6 6 6 6 6 7 8 7 10 12 12 11 12 13 13 14 13 13 14 14 14 14 15 16 15 15 17 16 18 19 17 16
10 10 10 10 9 8 8 7 7 7 6 6 5 5 5 5 6 7 7 6 8 11 11 11 11 12 12 12 13 13 13 13 14 14 15 16 16 16 16 16 17 17 18
10 9 9 9 9 8 7 7 7 7 6 6 5 5 5 5 5 6 6 6 5 7 9 9 11 11 11 12 13 13 13 13 13 13 14 14 15 16 16 17 17 17 18
9 9 9 9 8 8 7 6 6 7 6 5 5 5 5 5 5 5 5 5 5 5 6 8 9 10 10 11 11 13 11 13 13 13 13 13 13 14 16 16 17 17 17
9 9 8 8 8 7 7 6 6 6 6 5 5 5 4 4 4 4 4 4 4 4 5 5 6 8 9 10 11 12 11 12 13 13 13 13 13 13 14 15 15 16 17
9 8 8 8 7 7 7 6 6 6 5 5 4 4 4 3 4 4 4 4 4 4 3 4 5 5 6 9 9 10 11 11 12 12 13 14 13 13 13 14 14 15 16
8 8 8 8 7 7 7 6 6 5 5 5 4 4 3 3 3 3 3 3 3 3 3 3 3 4 5 6 8 9 10 11 11 12 12 14 14 13 13 13 14 13 14
8 8 8 7 7 7 7 6 6 5 5 4 4 4 3 3 3 3 3 2 2 2 3 3 4 4 4 5 6 8 9 9 10 10 11 11 12 14 13 13 13 13 13
8 8 8 7 7 7 6 6 6 5 4 4 4 3 3 2 2 2 2 2 2 2 2 2 2 3 3 4 5 6 7 7 8 9 9 10 12 11 12 12 12 12 12
8 8 8 7 7 7 6 6 5 5 4 4 3 3 3 2 2 2 2 2 2 2 2 1 1 2 2 3 3 4 5 6 7 8 8 8 9 10 9 11 12 12 11
9 8 8 7 7 7 6 6 5 4 4 3 3 3 2 2 2 2 2 2 2 2 1 1 1 2 1 2 2 3 4 4 5 7 7 8 8 9 9 10 11 11 11
9 8 8 7 7 6 6 6 5 4 3 3 3 3 2 2 2 1 1 1 1 1 1 1 1 0 1 1 3 3 3 4 3 3 6 7 7 8 8 9 10 10 10
8 8 8 7 6 6 6 5 5 4 3 3 3 2 2 2 2 1 1 1 1 1 1 0 0 0 0 -0 3 4 3 3 3 2 2 4 5 6 8 9 9 10 10
8 8 7 7 6 5 5 5 4 4 4 3 3 2 2 1 1 1 1 1 1 0 0 0 0 -0 -0 0 4 3 3 3 1 1 1 1 3 3 5 6 8 9 9
8 7 7 6 6 5 5 4 4 4 4 3 2 1 1 1 1 1 0 0 0 -0 -0 -0 -0 -0 -1 -1 -0 3 2 1 -0 0 1 -0 -0 2 3 3 5 7 9
8 7 7 6 6 5 5 4 4 4 3 3 1 0 0 0 0 -0 -0 -0 -0 -0 -1 -1 -1 -1 -1 -1 -2 0 1 -1 -1 2 2 0 -1 3 2 2 3 4 5
7 7 7 6 6 6 5 4 3 3 3 1 1 0 -0 -0 -0 -0 -1 -1 -1 -1 -2 -3 -2 -2 -2 -3 -3 -4 -4 -4 -2 -1 -1 1 2 2 3 2 2 3 3
6 6 7 7 6 5 4 4 3 3 2 1 0 0 0 -0 -0 -1 -1 -1 -1 -2 -3 -4 -4 -4 -4 -4 -4 -4 -5 -5 -5 -4 -1 -0 1 2 3 2 1 1 2
5 6 6 6 6 5 4 3 3 2 1 0 0 0 -0 -0 -1 -1 -1 -1 -2 -2 -3 -4 -4 -5 -5 -5 -5 -5 -5 -5 -6 -5 -4 -0 0 0 1 2 2 1 0
5 5 5 6 6 5 4 3 2 1 0 0 -0 -0 -0 -1 -1 -1 -2 -2 -2 -3 -3 -4 -5 -5 -6 -6 -6 -6 -6 -6 -6 -6 -5 -2 -0 0 0 1 1 -0 -0
5 5 5 5 5 4 3 2 1 0 -0 -0 -1 -1 -1 -1 -1 -2 -2 -2 -3 -3 -4 -5 -5 -6 -7 -6 -7 -7 -7 -7 -7 -7 -6 -4 -4 -3 -2 -1 -1 -2 -3
4 4 4 4 4 3 2 1 0 -0 -1 -1 -1 -1 -2 -2 -2 -2 -2 -2 -3 -3 -4 -4 -5 -6 -7 -7 -7 -7 -7 -7 -7 -7 -6 -6 -5 -5 -5 -4 -3 -3 -3

GFSMW_850_temp_288.txt.gz
Temp
12 11 11 10 10 9 8 8 8 8 8 9 8 9 11 10 10 10 11 12 13 13 13 13 13 14 15 16 16 16 16 16 16 16 17 17 17 17 16 16 16 16 16
12 11 11 10 10 9 8 8 8 8 8 8 7 8 8 9 10 9 11 11 11 13 13 13 12 13 14 15 15 16 16 16 16 15 16 16 17 17 17 17 17 16 16
11 11 11 11 10 9 8 8 8 8 7 7 7 8 8 8 8 8 8 10 11 10 12 11 12 12 13 13 14 15 15 15 15 15 15 16 16 17 18 17 18 17 16
11 11 11 11 10 9 8 8 8 8 7 7 7 7 6 6 6 7 7 7 7 9 10 11 11 13 12 13 13 14 15 15 15 15 15 16 17 17 17 18 19 18 17
12 11 11 10 10 9 8 8 8 8 7 6 6 6 6 6 6 6 6 6 7 7 7 9 10 12 10 11 12 13 13 14 14 14 15 15 16 17 16 17 16 17 17
11 10 10 10 10 9 8 7 7 7 7 6 5 5 6 5 5 5 5 5 5 6 6 8 9 10 11 11 11 12 12 12 13 14 14 16 15 15 16 16 18 16 16
10 10 10 10 9 9 8 7 7 7 7 6 5 5 5 5 5 5 4 5 5 5 5 6 7 7 10 10 10 11 11 11 11 12 13 13 15 15 16 16 16 17 18
10 10 9 9 8 8 8 7 7 7 6 5 5 5 5 4 4 4 4 4 4 4 4 4 5 5 7 8 9 10 10 10 11 12 11 10 12 15 16 16 16 16 16
10 9 9 8 8 8 8 7 7 6 6 5 5 4 5 4 4 4 4 3 3 3 4 3 3 4 5 6 7 9 9 10 11 11 10 10 12 13 13 14 15 15 16
10 9 9 9 8 8 8 7 7 6 6 5 5 4 4 4 4 4 3 3 3 3 3 3 3 3 4 5 5 7 8 9 9 10 10 11 11 11 11 13 13 14 14
9 9 9 8 8 8 8 7 7 6 6 5 5 4 4 3 3 4 3 3 3 3 3 3 4 4 3 4 4 6 7 7 9 8 9 10 10 11 11 11 12 13 13
9 9 9 8 8 8 8 7 7 6 6 5 4 4 4 3 3 3 3 3 3 2 2 2 3 3 4 3 2 3 6 6 6 7 8 8 10 10 10 11 11 12 13
10 9 9 8 8 8 7 7 7 6 5 5 4 4 3 3 2 2 3 3 3 2 2 2 2 2 1 4 4 4 4 4 5 4 5 7 8 9 9 9 10 11 11
9 9 9 8 8 8 7 7 7 6 5 5 4 3 3 3 2 2 2 2 2 2 2 2 2 1 1 3 4 5 5 4 4 4 3 4 5 6 8 8 8 9 9
10 10 9 9 8 8 7 7 7 6 5 4 4 3 3 3 2 2 2 2 2 2 2 3 2 1 1 1 2 4 4 5 5 3 2 2 3 3 4 6 7 8 9
10 10 9 9 8 8 7 7 6 6 5 4 4 3 3 3 2 2 2 2 2 2 2 3 2 1 1 1 1 2 3 4 4 4 3 2 2 2 4 5 5 5 7
9 9 9 9 8 7 7 6 6 6 5 4 4 4 3 2 2 2 2 1 2 1 1 1 1 1 0 0 1 2 3 3 3 2 2 2 1 0 2 4 5 5 5
9 9 9 8 8 7 7 6 6 5 5 4 4 3 3 2 1 1 1 1 1 1 1 0 0 0 0 -0 -0 1 3 2 2 2 2 2 1 -0 0 3 4 5 5
9 8 8 8 7 7 7 6 6 5 5 4 4 3 2 1 1 1 1 0 0 0 -0 -0 -0 -0 -0 -1 -2 -2 1 3 2 1 2 1 1 1 2 1 3 4 5
7 7 7 7 7 7 7 6 5 4 4 4 4 3 2 1 1 1 0 0 -0 -0 -1 -1 -1 -1 -1 -2 -2 -3 -3 -1 1 2 2 1 1 1 1 1 2 3 4
7 7 7 7 7 7 7 6 5 5 4 4 3 2 1 1 1 1 0 -0 -1 -1 -1 -1 -2 -2 -2 -2 -2 -3 -5 -5 -5 -4 -2 0 1 2 2 1 1 1 2
6 6 6 6 6 6 6 7 6 5 4 3 3 2 1 1 1 0 -0 -0 -1 -1 -1 -2 -2 -3 -3 -4 -3 -3 -5 -6 -6 -6 -5 -4 -2 1 1 1 1 1 1
6 6 6 6 6 6 6 6 5 4 3 2 2 1 1 0 0 -0 -0 -1 -1 -1 -2 -2 -2 -2 -3 -3 -3 -4 -5 -7 -7 -6 -7 -6 -3 -1 -0 0 0 -0 -0
5 5 5 5 5 5 5 6 4 3 2 2 1 1 0 -0 -0 -1 -1 -1 -1 -2 -2 -2 -3 -3 -3 -4 -4 -5 -5 -4 -5 -7 -7 -7 -4 -2 -2 -2 -3 -3 -3
5 5 5 4 4 5 5 5 3 2 -0 1 0 0 -0 -1 -1 -1 -1 -2 -2 -2 -2 -2 -3 -4 -4 -4 -5 -6 -7 -7 -7 -7 -7 -7 -6 -6 -5 -5 -5 -5 -4
2 2 2 2 3 4 3 3 1 0 1 -0 -0 -1 -1 -1 -2 -2 -2 -2 -2 -2 -3 -3 -4 -3 -4 -4 -5 -5 -7 -7 -7 -7 -7 -6 -6 -6 -6 -6 -5 -5 -5

GFSMW_850_temp_291.txt.gz
Temp
11 11 10 10 10 9 9 7 7 8 9 9 9 10 10 9 9 9 8 9 10 11 11 13 12 13 13 14 14 15 14 16 15 15 15 16 16 16 16 16 16 16 16
11 11 11 10 10 9 9 9 7 7 7 8 8 8 8 9 9 9 9 7 8 10 11 11 12 12 12 13 14 14 14 14 15 15 15 16 16 16 16 16 16 16 16
11 11 10 10 9 9 8 8 7 7 7 7 8 8 9 9 8 9 8 8 7 8 9 10 11 12 12 12 12 13 14 13 14 14 15 15 15 16 17 16 16 17 16
11 11 10 10 9 9 8 8 8 7 7 7 7 6 6 6 5 6 7 7 7 7 7 8 8 8 10 10 11 12 12 13 12 13 14 15 15 16 16 17 17 17 17
10 10 10 10 9 8 8 8 7 7 7 6 6 6 6 6 6 6 6 7 7 6 6 7 7 7 8 9 10 10 11 11 12 13 12 13 14 15 16 16 17 17 17
10 10 9 9 9 8 8 7 7 6 6 6 6 6 6 6 6 6 6 6 7 7 6 6 7 6 6 7 8 9 10 10 11 11 12 11 11 13 13 15 16 16 17
10 9 9 9 9 8 8 7 7 6 6 6 6 5 5 5 5 5 5 5 6 6 7 5 5 6 5 5 7 7 9 10 10 11 11 12 10 11 13 11 12 15 16
10 9 9 9 8 8 8 7 7 6 6 5 5 5 5 5 5 4 4 5 5 5 6 6 4 5 5 4 5 5 7 8 9 10 10 11 11 11 11 12 10 11 14
9 9 9 8 8 8 8 7 7 6 6 5 5 4 4 4 4 4 4 5 5 4 4 5 5 5 4 4 4 3 6 7 8 9 10 10 10 10 10 11 11 11 10
9 9 9 8 8 8 8 7 7 7 6 6 5 4 4 4 4 4 3 4 4 4 3 4 5 5 5 3 4 5 5 6 7 7 8 9 9 9 10 12 11 11 10
9 9 9 9 8 8 8 7 7 7 6 6 5 4 4 3 4 4 3 3 3 3 3 2 3 4 5 5 4 4 4 5 6 6 6 7 8 9 9 10 10 10 12
10 9 9 9 8 8 8 7 7 7 6 6 5 5 4 3 3 3 3 4 3 2 2 3 2 3 4 4 4 3 4 4 4 5 4 4 4 6 7 9 9 10 10
10 9 9 9 8 8 8 7 7 7 6 6 5 5 4 3 3 3 3 3 3 3 2 2 2 2 2 4 3 3 4 3 4 4 2 3 3 4 5 6 7 7 8
10 10 9 9 9 8 8 7 7 7 6 6 5 5 4 3 3 2 2 3 3 2 2 3 2 2 1 2 3 4 4 4 3 3 2 1 1 2 2 4 5 5 7
10 10 10 9 9 8 8 7 7 6 6 6 5 5 4 3 3 3 2 2 2 3 3 3 2 1 0 0 0 2 4 4 4 3 2 1 0 0 1 2 4 4 5
10 10 9 9 9 8 8 7 7 6 6 6 5 5 4 3 3 3 3 2 2 2 2 3 2 1 1 0 -1 -0 2 3 3 3 4 2 1 1 2 3 3 3 3
9 9 9 9 9 8 8 7 7 6 6 6 5 5 4 4 3 3 3 2 2 2 1 1 1 0 0 -0 -1 -1 -1 0 1 1 2 2 1 2 3 3 4 4 4
7 7 7 7 7 7 8 7 7 7 6 5 5 5 4 4 4 3 3 2 1 1 1 0 -1 -1 -0 -0 -1 -2 -2 -1 -0 0 1 1 0 1 2 3 3 4 4
6 6 6 6 6 6 6 7 7 7 6 5 5 4 4 4 4 3 3 2 1 1 -0 -1 -1 -1 -1 -1 -1 -2 -2 -2 -1 -1 -1 -1 -0 -1 0 1 2 3 4
6 6 6 6 6 6 6 6 6 6 6 6 6 4 4 4 4 3 2 1 1 0 -1 -1 -1 -1 -1 -1 -1 -2 -2 -2 -2 -2 -3 -3 -4 -3 -3 -3 -1 1 2
5 6 6 6 6 6 6 6 6 6 6 6 5 4 4 3 3 2 1 1 0 -0 -1 -1 -1 -1 -2 -2 -2 -3 -3 -2 -2 -3 -4 -5 -4 -3 -3 -2 -2 -2 0
5 5 5 5 5 5 5 5 5 5 6 5 5 4 3 2 3 1 1 0 -0 -1 -1 -1 -1 -1 -2 -2 -3 -3 -4 -4 -3 -2 -3 -4 -5 -3 -2 -2 -2 -3 -3
2 3 3 3 3 3 4 4 4 4 5 5 4 3 2 2 2 1 0 0 -0 -1 -1 -1 -2 -2 -2 -3 -3 -4 -4 -4 -5 -4 -3 -4 -4 -4 -4 -3 -4 -6 -5
0 1 1 1 1 2 2 3 3 3 3 3 2 1 1 1 1 0 -0 -1 -1 -1 -2 -2 -2 -2 -2 -2 -3 -4 -4 -5 -6 -6 -6 -5 -5 -5 -5 -6 -6 -6 -6
-2 -2 -2 -1 -1 -1 -0 0 1 -0 1 2 0 -0 -1 -2 -1 -1 -1 -1 -1 -2 -2 -3 -3 -3 -3 -3 -3 -4 -4 -5 -5 -6 -6 -6 -6 -6 -7 -6 -6 -6 -6
-2 -2 -2 -2 -2 -2 -2 -2 -2 -3 -3 -2 -3 -3 -2 -3 -3 -2 -2 -2 -2 -3 -3 -3 -3 -3 -3 -3 -4 -4 -5 -5 -5 -6 -6 -6 -6 -6 -6 -6 -6 -6 -6

GFSMW_850_temp_297.txt.gz
Temp
9 9 8 8 8 8 7 7 7 7 8 9 9 9 9 8 9 9 9 9 9 10 10 10 10 11 11 10 11 12 12 13 14 13 14 15 15 15 15 15 15 15 15
9 9 9 8 8 7 7 7 7 6 7 7 8 8 8 8 8 8 9 9 9 9 9 9 10 10 9 9 10 10 11 11 12 11 12 12 14 15 15 15 15 16 15
10 9 9 8 8 8 7 7 7 6 6 6 7 8 8 8 8 8 8 8 8 9 9 9 9 9 9 9 8 9 9 9 10 11 11 11 12 13 14 15 15 15 16
9 9 8 8 8 7 7 7 7 6 6 6 7 7 7 7 7 7 7 7 8 8 8 8 8 9 8 8 8 8 8 8 9 10 10 10 11 11 12 13 14 15 16
9 9 8 8 8 8 7 7 7 7 6 6 6 6 6 6 6 7 7 7 7 7 8 8 8 8 8 8 8 8 8 8 8 8 9 10 10 11 10 10 12 14 14
9 9 9 8 8 8 7 7 7 7 6 6 6 6 6 6 6 6 7 7 7 7 7 7 7 7 8 8 7 7 7 7 8 8 8 8 8 9 10 10 11 11 12
10 10 9 8 8 8 7 7 7 7 7 6 6 6 5 5 5 5 5 6 6 6 7 7 7 6 6 7 7 7 7 7 7 8 8 7 8 7 9 10 10 10 11
9 9 9 8 8 8 7 7 7 7 7 6 6 6 6 6 5 5 5 5 5 5 5 6 6 6 6 6 6 6 6 6 6 6 7 7 7 7 6 7 8 10 10
9 9 9 9 8 8 8 8 7 7 7 7 6 6 6 6 5 5 5 4 4 5 5 4 5 5 5 6 6 5 5 5 6 6 6 6 6 6 6 7 7 6 7
9 9 9 9 9 8 8 8 8 7 7 7 7 6 6 6 5 5 5 5 5 5 5 5 4 4 5 5 5 5 5 5 5 5 5 5 4 4 4 5 6 5 6
10 10 10 9 9 8 8 8 8 8 7 7 7 7 6 6 6 5 5 5 5 4 5 5 5 4 4 4 4 4 5 5 5 5 4 4 4 3 3 4 4 5 5
10 10 10 9 9 9 9 8 8 8 8 7 7 7 7 6 6 6 5 5 5 4 4 4 4 4 4 4 4 4 4 4 4 4 4 4 4 4 4 3 3 3 3
10 10 10 9 9 9 9 9 8 8 8 7 7 7 7 7 6 6 6 5 5 4 4 4 4 4 4 3 3 4 4 3 3 3 3 3 3 3 4 3 3 3 2
8 8 8 8 8 8 8 8 8 8 7 7 7 7 7 6 6 6 6 6 5 5 4 4 4 4 4 3 3 2 2 3 2 2 2 2 2 3 3 3 3 3 3
7 7 7 7 7 7 7 7 7 7 7 7 7 6 6 6 6 6 6 6 5 5 4 3 3 3 3 3 2 1 1 1 1 2 1 1 1 2 2 2 2 3 3
6 6 6 6 6 6 6 6 6 6 6 6 6 6 6 6 6 6 6 6 5 5 4 4 3 3 2 2 1 -0 -0 0 0 1 1 1 1 1 1 2 1 1 1
5 5 5 5 5 5 5 5 5 5 5 5 5 5 5 5 5 5 5 5 5 5 4 4 3 3 2 1 0 -1 -1 -1 -1 -0 -0 0 0 1 0 1 1 1 1
4 4 4 4 4 4 5 5 5 5 5 5 5 5 4 4 5 5 5 4 5 5 4 3 3 2 2 1 -0 -1 -1 -1 -1 -1 -1 -0 0 -0 0 1 1 1 0
2 2 2 2 3 3 3 3 3 3 3 3 3 3 3 3 4 4 4 4 4 4 4 3 2 2 1 1 -0 -1 -2 -2 -2 -2 -1 -1 -0 0 -0 0 1 0 0
1 1 1 1 1 1 1 1 1 1 2 2 2 2 2 2 2 3 4 4 4 4 3 2 1 1 0 0 -1 -1 -2 -2 -3 -2 -2 -2 -2 -1 -0 -0 -0 0 -0
0 0 -0 -0 -0 -0 -0 -0 -0 -0 -0 -0 -0 0 1 1 1 2 3 3 3 2 -0 -0 -1 -2 -0 -1 -1 -2 -2 -3 -3 -3 -3 -3 -3 -3 -3 -3 -2 -2 -1
0 -0 -0 -0 -0 -1 -1 -1 -1 -1 -1 -1 -1 -1 -1 -1 -1 -1 0 1 1 0 -1 -0 -1 -2 -1 -1 -2 -2 -2 -3 -4 -3 -3 -3 -3 -4 -4 -4 -4 -4 -3
-1 -2 -2 -2 -1 -1 -2 -2 -2 -3 -3 -3 -2 -2 -2 -2 -3 -3 -2 -2 -2 -2 -2 -1 -2 -3 -2 -2 -2 -3 -3 -3 -4 -4 -4 -4 -4 -4 -5 -5 -5 -5 -5
-2 -2 -2 -2 -2 -3 -3 -3 -3 -4 -4 -5 -4 -4 -4 -4 -4 -4 -4 -4 -3 -3 -3 -3 -3 -4 -4 -4 -3 -3 -3 -4 -4 -4 -5 -5 -5 -5 -5 -5 -5 -5 -5
-3 -3 -3 -3 -3 -4 -4 -4 -4 -5 -6 -6 -7 -6 -6 -6 -5 -5 -5 -5 -4 -4 -4 -4 -4 -4 -4 -4 -4 -4 -4 -4 -5 -5 -5 -5 -5 -5 -5 -5 -5 -5 -6
-3 -4 -4 -4 -4 -4 -5 -5 -5 -6 -7 -7 -7 -7 -7 -7 -7 -7 -6 -5 -5 -5 -5 -5 -5 -5 -5 -6 -5 -5 -5 -5 -5 -5 -5 -5 -5 -6 -6 -6 -6 -6 -6